Wichita Falls, TX

9:45 PM CDT on March 26, 2017 (GMT -0500)
Sheppard Air Force Base-Wichita Falls Municipal

Weather History for KSPS - February, 2013

Change the Weather History Date:

Sunday, February 17, 2013

  Actual Average Record
Temperature  
Mean Temperature 53 °F 46 °F  
Max Temperature 74 °F 59 °F 84 °F (2011)
Min Temperature 31 °F 34 °F 10 °F (1978)
Degree Days  
Heating Degree Days 12 19  
Month to date heating degree days 281 347  
Since 1 July heating degree days 1980 2257  
Growing Degree Days 2 (Base 50)    
Moisture  
Dew Point 27 °F    
Average Humidity 46    
Maximum Humidity 78    
Minimum Humidity 14    
Precipitation  
Precipitation 0.00 in 0.07 in 1.03 in (1989)
Month to date precipitation 1.01 0.95  
Year to date precipitation 1.65 2.09  
Snow  
Snow 0.00 in 0.00 in - ()
Month to date snowfall T 0.4  
Since 1 July snowfall 3.5 3.1  
Snow Depth -    
Sea Level Pressure  
Sea Level Pressure 29.91 in    
Wind  
Wind Speed 15 mph (South)    
Max Wind Speed 31 mph    
Max Gust Speed 37 mph    
Visibility 10 miles    
Events      
T = Trace of Precipitation, MM = Missing Value Source: NWS Daily Summary

Daily Weather History Graph

Daily Weather History Graph

Search for Another Location

Airport or City:

Trip Planner

Search our weather history database for the weather conditions in past years. The results will help you decide how hot, cold, wet, or windy it might be!

Date:

Astronomy

Feb. 17, 2013 Rise Set
Actual Time 7:16 AM CST 6:20 PM CST
Civil Twilight 6:50 AM CST 6:45 PM CST
Nautical Twilight 6:21 AM CST 7:14 PM CST
Astronomical Twilight 5:52 AM CST 7:43 PM CST
Moon 11:31 AM CST (2/17) 12:56 AM CST (2/17)
Length of Visible Light 11h 54m
Length of Day
11h 03m
Waxing Crescent, 49% of the Moon is Illuminated
Feb 17
Waxing Crescent
Feb 17
First Quarter
Feb 25
Full
Mar 4
Last Quarter
Mar 11
New

Hourly Weather History & Observations

Time (CST) Temp. Windchill Dew Point Humidity Pressure Visibility Wind Dir Wind Speed Gust Speed Precip Events Conditions
12:52 AM 39.0 °F 34.8 °F 28.0 °F 65% 30.09 in 10.0 mi SSE 5.8 mph - N/A   Clear
1:52 AM 39.0 °F 34.0 °F 28.9 °F 67% 30.06 in 10.0 mi South 6.9 mph - N/A   Clear
2:52 AM 37.9 °F 32.1 °F 28.9 °F 70% 30.05 in 10.0 mi South 8.1 mph - N/A   Clear
3:52 AM 35.1 °F 28.6 °F 28.0 °F 76% 30.02 in 10.0 mi South 8.1 mph - N/A   Clear
4:52 AM 32.0 °F 25.6 °F 27.0 °F 82% 30.02 in 10.0 mi South 6.9 mph - N/A   Clear
5:52 AM 33.1 °F 27.7 °F 27.0 °F 78% 30.02 in 10.0 mi South 5.8 mph - N/A   Clear
6:52 AM 32.0 °F 26.4 °F 27.0 °F 82% 30.02 in 10.0 mi South 5.8 mph - N/A   Clear
7:52 AM 33.8 °F 29.6 °F 26.6 °F 75% 30.01 in 10.0 mi South 4.6 mph - N/A   Clear
8:52 AM 44.1 °F 39.0 °F 30.0 °F 58% 30.02 in 10.0 mi SSW 9.2 mph - N/A   Clear
9:52 AM 54.0 °F - 30.9 °F 41% 30.01 in 10.0 mi SSW 15.0 mph - N/A   Clear
10:52 AM 62.1 °F - 28.0 °F 28% 29.98 in 10.0 mi SSW 17.3 mph - N/A   Clear
11:52 AM 66.9 °F - 27.0 °F 22% 29.95 in 10.0 mi SSW 19.6 mph 29.9 mph N/A   Clear
12:52 PM 69.1 °F - 28.0 °F 22% 29.91 in 10.0 mi South 20.7 mph 25.3 mph N/A   Clear
1:52 PM 73.0 °F - 27.0 °F 18% 29.86 in 10.0 mi South 19.6 mph 31.1 mph N/A   Clear
2:52 PM 73.9 °F - 25.0 °F 16% 29.82 in 10.0 mi South 25.3 mph 32.2 mph N/A   Clear
3:52 PM 73.9 °F - 21.0 °F 14% 29.79 in 10.0 mi South 29.9 mph 36.8 mph N/A   Clear
4:52 PM 72.0 °F - 21.9 °F 15% 29.78 in 10.0 mi South 18.4 mph 31.1 mph N/A   Clear
5:52 PM 69.1 °F - 21.0 °F 16% 29.77 in 10.0 mi South 19.6 mph - N/A   Clear
6:52 PM 64.0 °F - 24.1 °F 22% 29.77 in 10.0 mi South 11.5 mph - N/A   Clear
7:52 PM 60.1 °F - 25.0 °F 26% 29.78 in 10.0 mi South 16.1 mph - N/A   Clear
8:52 PM 59.0 °F - 27.0 °F 29% 29.78 in 10.0 mi South 16.1 mph - N/A   Clear
9:52 PM 57.9 °F - 30.0 °F 35% 29.78 in 10.0 mi South 16.1 mph - N/A   Clear
11:52 PM 57.9 °F - 39.0 °F 49% 29.75 in 10.0 mi South 20.7 mph 28.8 mph N/A   Clear